Tracking 27126 objects as of 31-Mar-2023
HD Live streaming from Space Station
objects crossing your sky now

PAGEOS 1 DEB

Track PAGEOS 1 DEB now!
10-day predictions


NORAD ID: 2511
Int'l Code: 1966-056D
Perigee: 4,228.2 km
Apogee: 4,267.9 km
Inclination: 87.0 °
Period: 181.5 minutes
Semi major axis: 10619 km
RCS: 1.1173 m2 (large)
Launch date: June 24, 1966
Source: United States (US)
Launch site: AIR FORCE WESTERN TEST RANGE (AFWTR)

Note: This is SATELLITE DEBRIS
Your satellite tracking list
Your tracking list is empty




NASA's NSSDC Master Catalog

Two Line Element Set (TLE):
1  2511U 66056D   23089.08823456  .00000002  00000-0 -65306-3 0  9996
2  2511  87.0163 328.0175 0018701  74.1525 286.1341  7.93366428644516
Source of the keplerian elements: AFSPC